Location: La Estación
(39.9833°N, 3.9500°W)
Time: 16:30:26
(UTC+00:00)

USA 215 - Pass Details

Date: 14 June 2025
Orbit: 1102 x 1105 km, 123.0° (Epoch: 12 July)

Event Time Altitude Azimuth Distance (km) Brightness Sun altitude
Exits shadow 20:42:57 10° 148° (SSE) 2,947 4.9 -9.6°
Maximum altitude 20:49:22 61° 228° (SW) 1,239 3.6 -10.5°
Drops below altitude 10° 20:55:50 10° 308° (NW) 2,963 7.1 -11.4°
Sets 20:58:22 0° 311° (NW) 3,924 8.3 -11.7°
